GEESAT 2-10

Satellite information

Favourite Embed

Satellite Type and Status

PAYLOADIN ORBIT

Key statistics

Satellite GEESAT 2-10 at a glance.

Uptime

624

Days in orbit

Revolutions

≈ 14.9

Per day

Orbit

LEO

Low Earth Orbit

Inclination

50.0

Latest

Satellite identification and parameters

Extended collection of information and parameters for GEESAT 2-10.

Object identification

Identified? True

Debris? False

Object name: GEESAT 2-10

International designator: 2024-023K

Object number (NORAD): 58914

Object ID (CCSDS): 58914

Country: PEOPLES REPUBLIC OF CHINA (PRC)

Current information (Y/N): Y

RCS size: MEDIUM

Orbital parameters

Period: 96.66 minutes

Inclination: 49.9945 deg

SMA: 6976.83 km

Apoapsis: 604.242 km

Periapsis: 593.149 km

RAAN: 59.0912 deg

Eccentricy: 0.00079501

Argument of periapsis: 209.5498 deg

Mean anomaly: 150.4994 deg

Mean motion: 14.89757339 rev/day

Mean motion (dot): 0.00009258 rev/day2

B* drag term: 0.00097821804 1/REarth

Two-line elements (TLE)

Creation date: Oct. 13, 2025, 10:50 a.m.

Reference frame: TEME

Reference center: EARTH

Epoch: Oct. 13, 2025, 4:22 a.m. UTC

TLE line 0: 0 GEESAT 2-10

TLE line 1: 1 58914U 24023K 25286.18243858 .00009258 00000-0 97822-3 0 9995

TLE line 2: 2 58914 49.9945 59.0912 0007950 209.5498 150.4994 14.89757339 92237

Live tracking on map

Real-time ground track for satellite GEESAT 2-10.

In-orbit conjunctions

There are no conjunctions computed for GEESAT 2-10, at the moment. Check back to stay up to date, as we update our databases every day.

Go to all conjunctions

Associated space launch

11 LEO communications satellites for Chinese car manufacturer Geely Automotive for testing autonomous driving/inter-vehicle communication services. They also carry payloads for ocean observation.

GEESAT 2-10 was lifted into orbit during the mission ‘Long March 2C | Geely Constellation Group 02’, on board a Long March 2 space rocket.

The launch took place on Feb. 2, 2024, 11:37 p.m. from Launch Complex 3 (LC-3/LA-1).

For more information about the launch, click the button.

Launch to space Long March 2C | Geely Constellation Group 02
Long March 2C | Geely Constellation Group 02

Agency: N/A

Status: Launch Successful

Launch date: Feb. 2, 2024, 11:37 p.m. UTC

Rocket: Long March 2

Launch pad: Launch Complex 3 (LC-3/LA-1)

Location: Xichang Satellite Launch Center, People's Republic of China

...

Latest news about this satellite

News about space launch
China launches 20 satellites on separate inland and sea rocket launches

A pair of Chinese rockets launched 11 mobility services satellites for an automaker and nine further, diverse satellites into orbit late Friday.


Newsletter sign-up

Weekly statistics, charts and insights to help you stay on top of the space industry.